This is the latest recevied weather packets stored in our database for station/object DH5DY-6. If no packets are shown the sender has not sent any weather packets the latest 1 day(s).
| Time | Temp. | Humidity | Pressure | Rain* | Wind** | Luminosity | Snow |
|---|---|---|---|---|---|---|---|
| 1778035121 | 10.56° C | 95% | 1003.1 hPa | 0 mm | - | 0 W/m² | - |
| 1778034521 | 10.56° C | 95% | 1003.3 hPa | 0 mm | - | 0 W/m² | - |
| 1778033921 | 10.56° C | 95% | 1003.3 hPa | 0 mm | - | 0 W/m² | - |
| 1778033321 | 10.56° C | 95% | 1003.3 hPa | 0 mm | - | 0 W/m² | - |
| 1778031521 | 11.11° C | 95% | 1003.3 hPa | 0 mm | - | 0 W/m² | - |
| 1778030921 | 11.11° C | 95% | 1003.2 hPa | 0 mm | - | 0 W/m² | - |
| 1778030321 | 11.11° C | 95% | 1003.3 hPa | 0 mm | - | 0 W/m² | - |
| 1778029120 | 11.11° C | 95% | 1003.3 hPa | 0 mm | - | 0 W/m² | - |
| 1778028521 | 11.11° C | 95% | 1003.2 hPa | 0.25 mm | - | 0 W/m² | - |
| 1778026721 | 11.67° C | 95% | 1003.3 hPa | 1.02 mm | - | 0 W/m² | - |
| 1778023721 | 12.22° C | 95% | 1003.6 hPa | 3.3 mm | - | 0 W/m² | - |
| 1778023121 | 12.22° C | 95% | 1003.6 hPa | 4.32 mm | - | 0 W/m² | - |
| 1778021921 | 12.22° C | 95% | 1003.6 hPa | 3.56 mm | - | 0 W/m² | - |
| 1778021320 | 12.22° C | 95% | 1003.6 hPa | 3.81 mm | - | 0 W/m² | - |
| 1778020721 | 12.22° C | 95% | 1003.7 hPa | 3.3 mm | - | 0 W/m² | - |
| 1778015920 | 12.22° C | 95% | 1004.4 hPa | 0.76 mm | - | 0 W/m² | - |
| 1778015320 | 12.22° C | 95% | 1004.5 hPa | 1.27 mm | - | 0 W/m² | - |
| 1778014720 | 12.22° C | 94% | 1004.5 hPa | 1.52 mm | - | 0 W/m² | - |
| 1778013520 | 12.22° C | 94% | 1004.7 hPa | 1.78 mm | - | 0 W/m² | - |
| 1778011721 | 12.22° C | 94% | 1004.7 hPa | 2.54 mm | - | 0 W/m² | - |
| 1778011120 | 12.78° C | 94% | 1004.6 hPa | 2.29 mm | - | 0 W/m² | - |
| 1778010520 | 12.78° C | 94% | 1004.5 hPa | 2.29 mm | - | 0 W/m² | - |
| 1778007519 | 13.33° C | 94% | 1004.5 hPa | 1.02 mm | - | 0 W/m² | - |
| 1778006919 | 13.33° C | 93% | 1004.5 hPa | 1.02 mm | - | 0 W/m² | - |
| 1778005719 | 13.33° C | 93% | 1004.6 hPa | 1.02 mm | - | 7 W/m² | - |
* Rain latest hour (hover to see other rain measurements)
** Current wind speed in m/s (hover to see current wind gust speed)